SL-16 DEB, 18527

Orbit data source: Space-Track

SL-16 DEB, 18527 is space debris in LEO originally from a launch on Wed, 18 Mar 1987 UTC launched from the Tyuratam Missile And Space Complex (TTMTR). Debris objects in space refer to the collection of defunct objects orbiting the Earth. Examples of debris include non-operational satellites, rocket bodies, and fragments generated from explosions, collisions, or faulty payload assembly.

Loading next visibility...
Identifier
18527, 1987-027E
Orbit
LEO
Country
Flag of CISCIS
Related business
Manufacturer
Yuzhnoe
Mission
Spacecraft
Bus & Motor
SEP MOTOR COVER, Unknown motor
Mass
~0 kg wet, ~1 kg dry
Launch date (UTC)
1987-03-18 (39 years ago)
Launch vehicle
Unknown
Launch site
Tyuratam Missile And Space Complex (TTMTR)
Object type
Payload
Rocket body
Debris
Shape & HBR
Unknown shape, 0.2 m
Radar Cross Section
Small (<0.1 m²)

Expand to show TLE details & history
Last TLE update: 14 hours ago

TLE from 14 hours ago
0 SL-16 DEB
1 18527U 87027E   26130.35436527  .00000050  00000-0  84068-4 0  9999
2 18527  70.9990 358.0342 0195512 322.6456  36.1182 13.75807881963990
Epoch: 2026-05-10T08:30Z
TLE epoch observation values (Epoch: 2026-05-10T08:30:17.159Z)
Latitude
-0.00002°
Longitude
2.30405°
Altitude
865.944 km
Speed
7.478 km/s
True Right ascension
23h 52m 08s
True Declination
0° 00' 00"
Sunlit
Object was in daylight at epoch
Visualization orbit readout
Latitude
Unknown
Longitude
Unknown
Altitude
Unknown
Speed
Unknown
Apparent Right ascension
Unknown
Apparent Declination
Unknown
Sunlit
N/A
Visualization observer readout
Local Sidereal Time
06:21:54
Azimuth
Unknown
Elevation
Unknown
Doppler factor
Unknown
Orbital elements
Apogee altitude
1,120.553 km
Perigee altitude
832.959 km
Semi-major axis
7,354.893 km
Eccentricity
0.01955
Inclination
70.999°
RAAN
358.0342°
Arg. of periapsis
322.6456°
True anomaly
37.46526°
Mean anomaly
36.1182°
Eccentric anomaly
36.78906°
Mean motion
3.44095 °/min
Orbital period
104.62 mins
BSTAR
0.000084068
Loading maneuver chart data...
Computing Atmospheric mass density...
Loading historical data...
Loading historical data...
Loading historical data...
Loading historical data...
Loading historical data...
Loading historical data...
Loading historical data...

Documentation

Showing up to 5 results
|